Uncategorized

2021 Ratings: Allegan

Girls Adjustment: +27
Boys Adjustment: +20

PRIMETIME PERFORMERS

Taylor Meier, Paw Paw: A PR here and two consecutive weeks under 21:00.

Eli Veen, Plainwell: A little senior appreciation here. Eli’s followed in the footsteps of his two sisters and has admirably carried on their legacy. He was All-State last year and is much faster this year.

GradeNameTimeTeamRating
12Jana Stiffler18:45.3GRTC Perigrines135.2
11Olivia Barabas19:48.6Wayland Union114.1
10Molly Finkler20:01.6GRTC Perigrines109.8
11Lydia Kruis20:22.9Comstock102.7
11Taylor Meier20:52.4Paw Paw92.9
9Suzannah DiPiazza21:08.6GRTC Perigrines87.5
11Ella Schwartz21:17.1Hamilton84.6
11Rita Gergely21:27.2Kalamazoo Homeschool…81.3
12Autumn Wheeler21:34.2Allegan79
9Madison Johnson21:42.1Paw Paw76.3
10Elliot Antel21:42.5Wayland Union76.2
9Anya Steele21:51.5Coopersville73.2
12Meghan McGiverin21:57.0Howard City-Tri County71.3
12Hannah Smith21:57.5Wayland Union71.2
12Korin Whitcomb22:10.6Sturgis66.8
12Allison Lauri22:14.2Niles Brandywine65.6
11Delaney Kean22:18.8Paw Paw64.1
9Sydney Martin22:20.5Kalamazoo Homeschool…63.5
11Clare Engle22:25.4GRTC Perigrines61.9
10Kali Bunce22:41.3Paw Paw56.6
11Emma Heyerman22:41.4Hamilton56.5
11Cheri Dykstra22:44.7Holland Calvary Christian55.4
12Sophia Dech22:46.0Coopersville55
11Amelia Gibbs22:48.6Paw Paw54.1
11Jozaphine Navarro22:52.4Allegan52.9
9Maria Gergely23:00.3Kalamazoo Homeschool…50.2
11Aubrey Sibble23:01.5Hamilton49.8
10Daisy Speet23:05.7GRTC Perigrines48.4
11Emily Tuinstra23:13.7Wayland Union45.8
9Natalie Sanders23:17.3GRTC Perigrines44.6
10Amelia Hurst23:18.8Paw Paw44.1
10Mary Claire Davis23:41.3Kalamazoo Homeschool…36.6
12Gianna Dugan23:42.2GRTC Perigrines36.3
10Anasophia Schmitz23:42.7GRTC Perigrines36.1
9Maggie Prina23:48.1GRTC Perigrines34.3
10Emma Kenyon23:48.2Paw Paw34.3
12Elicia Land23:51.4GRTC Perigrines33.2
12Bri Hofman23:56.6Hamilton31.5
10Hope Beaune23:58.0Coopersville31
10Caroline Johnson23:59.1Hamilton30.6
11Elyse Genzink24:03.2Hamilton29.3
11Emma Thayer24:04.1Wayland Union29
11Lauren Brondyke24:09.6Hamilton27.1
12Melany Cattaneo24:26.2Plainwell21.6
10Abby Goodwin24:27.0Paw Paw21.3
9Annabelle McRae24:27.5Holland Calvary Christian21.2
10Maddie Rose24:29.5Plainwell20.5
11Natalie Somers24:32.8Plainwell19.4
11Lauren Vos24:38.3Plainwell17.6
10Laura Groner24:39.4Plainwell17.2
12Meghan VanDalen24:40.4GRTC Perigrines16.9
9Erika Emery24:40.5Coopersville16.8
12Grace Lloyd24:47.6Kalamazoo Homeschool…14.5
9Alison Vandyke24:47.7Plainwell14.4
10Naideline Luna-Bucio24:53.2Sturgis12.6
10Natalie Schulz24:54.8Howard City-Tri County12.1
9Vanessa Rodriguez24:58.5Paw Paw10.8
11Meri Dykstra25:12.4Hamilton6.2
9Olivia Laninga25:12.6Holland Calvary Christian6.1
12Anna Kavanaugh25:13.2Kalamazoo Homeschool…5.9
11Lauryn DeWys25:20.0Hamilton3.7
9Amelia Adkins25:27.6GRTC Perigrines1.1

GradeNameTimeTeamRating
12Eli Veen16:27.9Plainwell184
11Max VanHuis16:39.1Hamilton180.3
11Austin Williford17:05.6Paw Paw171.5
11Devin Weaver17:19.9Wayland Union166.7
9Abatu Dykstra17:26.0Hamilton164.7
9Dylan Pallett17:35.3Wayland Union161.6
11Will Vanderbor17:40.7Paw Paw159.8
11John DiPiazza17:49.3GRTC Perigrines156.9
12Logan Vernia17:50.0Allegan156.7
10Evan Kraker17:55.6Hamilton154.8
10Josiah Miller17:58.9GRTC Perigrines153.7
11Travis Koon18:05.1Wayland Union151.6
10Henry Oudbier18:06.7Wayland Union151.1
12Zach DeVries18:17.3Kalamazoo Homeschool…147.6
10Isaac Dyer18:22.5Wayland Union145.8
10Zachary Green18:27.6Sturgis144.1
9Kaelan Miller18:28.6GRTC Perigrines143.8
12Ethan Edwards18:29.7Kalamazoo Homeschool…143.4
10Will Brodie18:29.8Kalamazoo Homeschool…143.4
12Jason Bowers18:32.3Paw Paw142.6
10James Butler18:32.6Wayland Union142.5
11Culver Neldon18:38.4Allegan140.5
10Brendan Nolan18:39.6Coopersville140.1
9Henry Cox18:41.8Plainwell139.4
10Bryce Lloyd18:46.6Kalamazoo Homeschool…137.8
12Spencer Koch18:53.2Allegan135.6
11Connor Gaylord18:54.5Plainwell135.2
12Trenton Laskey18:55.0Howard City-Tri County135
11Jared Jandernoa18:56.3Wayland Union134.6
9Nolan Park18:59.5Sturgis133.5
9Elijah Hakes19:04.1GRTC Perigrines132
11Ethan Kent19:05.3Sturgis131.6
10Aden Webber19:08.4Paw Paw130.5
10Brody Crandall19:09.1Hamilton130.3
12Tyler Gugino19:12.2Hamilton129.3
11Edwin Castillo19:16.2Plainwell127.9
10Josh Ulman19:16.6GRTC Perigrines127.8
10Joe Engle19:16.8GRTC Perigrines127.7
10Liam Troutner19:23.0Plainwell125.7
10Isaac Veen19:23.3Plainwell125.6
10Ethan Sheedlo19:29.4Hamilton123.5
11Haegan Land19:31.0GRTC Perigrines123
12Isaac Skinner19:31.2GRTC Perigrines122.9
12Joe Allen19:36.5Allegan121.2
11Jake McCubbin19:38.4Niles Brandywine120.5
9Morgan Duddles19:40.3GRTC Perigrines119.9
12Abram White19:43.1Holland Calvary Christian119
11George Jackson19:46.1Kalamazoo Homeschool…118
10Liam Pothoff19:52.3Hamilton115.9
10Noah Lewandowski19:52.7GRTC Perigrines115.8
9Noah Hernandez19:57.8Hamilton114.1
9David Artman20:02.9Kalamazoo Homeschool…112.4
12Trent Jacobs20:05.1Plainwell111.6
10Dawson Trolard20:06.0Paw Paw111.3
9Jake Chase20:09.0Hamilton110.3
12Micah Colby20:09.4Niles Brandywine110.2
10Mitchell Mooney20:12.6Paw Paw109.1
9Joey Oppenhuizen20:15.5Hamilton108.2
12Sam Rickerd20:19.7Coopersville106.8
11Cyrus Terrill20:22.0Kalamazoo Homeschool…106
11Aidyn Underwood20:33.7Allegan102.1
9Billy Pipkorn20:34.6Plainwell101.8
10Billy Webster20:35.3Paw Paw101.6
12Preston Lewis20:37.0Howard City-Tri County101
10Austin Zoch20:39.2Allegan100.3
12Jacob Ramirez20:41.9Comstock99.4
11Stanley Young20:45.5Comstock98.2
10Conner Dye20:45.6Niles Brandywine98.1
10Nicholas Cabrera20:48.1Allegan97.3
11Sawyer Childs20:55.8Allegan94.7
12Nick Weston20:56.6Paw Paw94.5
12Dillon Vliestra21:01.9Plainwell92.7
11Wyatt Reed21:02.6Sturgis92.5
9Levi Vestrand21:03.8Paw Paw92.1
9Landon Moore21:03.9Howard City-Tri County92
9David Oetman21:07.9Allegan90.7
11Ethan Olds21:09.5Howard City-Tri County90.2
10Abram Longcore21:09.7Plainwell90.1
10Trace Laskey21:10.7Howard City-Tri County89.8
10David Meeker21:27.3Plainwell84.2
9Josh Stempien21:37.9Plainwell80.7
11Gabriel Byrne21:46.0Hamilton78
11Stratton Land21:50.2GRTC Perigrines76.6
10Campbell Brooks21:53.9Allegan75.4
9Dominic Rolf21:55.4GRTC Perigrines74.9
11Mason Duff21:59.1Allegan73.6
11Tristan Barnett22:05.6Allegan71.5
10Carter VanWyk22:06.9Wayland Union71
11Jacob Sherrick22:14.1Niles Brandywine68.6
10Jonah Sanchez22:18.3Coopersville67.2
9Ben Dykstra22:32.4Hamilton62.5
10Gabriel Flanders22:39.9Paw Paw60
9Matthew Mooney22:42.9Paw Paw59
10Ethan Ohara22:47.8Niles Brandywine57.4
12Josh Blades22:51.6Plainwell56.1
10Drew Edwards22:55.4Kalamazoo Homeschool…54.9
9Hunter Miling22:58.5Allegan53.8
10Jordan Weers23:05.7Wayland Union51.4
9Kaden DeWys23:11.3Hamilton49.6
11Jacob Rydwelski23:16.6Niles Brandywine47.8
9Azariah Stevens23:20.1Coopersville46.6
12Nicholas Deblecourt23:35.4Plainwell41.5
9Luke Koerner23:46.7Paw Paw37.8
12Jonathon Lagenour23:47.5Plainwell37.5
10Vladyslav Hnitsa23:50.3Sturgis36.6
10Lucas Bedau23:56.1Paw Paw34.6
11Andrew Miller24:18.9Plainwell27
12Conner Maycroft24:29.4Coopersville23.5
10Jack Koets24:37.7Hamilton20.8
10Alex West25:09.6Paw Paw10.1
12Max Kirgios25:30.0Plainwell3.3

Leave a Reply

Fill in your details below or click an icon to log in:

WordPress.com Logo

You are commenting using your WordPress.com account. Log Out /  Change )

Google photo

You are commenting using your Google account. Log Out /  Change )

Twitter picture

You are commenting using your Twitter account. Log Out /  Change )

Facebook photo

You are commenting using your Facebook account. Log Out /  Change )

Connecting to %s